User: anonymous   Login
Location: Unspecified
(0.0000°N, 0.0000°E)
Time: 19:46:53
(UTC+00:00)
Language:

BEESAT 3 - Orbit

View from above orbital plane
View from above orbital plane
View from above satellite
View from above satellite

Ground track
Ground track

The orbit data is extracted from the following two-line orbital elements,

1 39134U 13015E   18350.91485571 +.00001014 +00000-0 +56648-4 0  9996
2 39134 064.8637 255.6029 0011743 322.6761 037.3549 15.19666922312282
Epoch (UTC): 16 December 2018 21:57:23
Eccentricity: 0.0011743
inclination: 64.8637°
perigee height: 499 km
apogee height: 515 km
right ascension of ascending node: 255.6029°
argument of perigee: 322.6761°
revolutions per day: 15.19666922
mean anomaly at epoch: 37.3549°
orbit number at epoch: 31228

The dashed part of the orbit path shows where the satellite is in the earth's shadow,  

DLR